Terminal Aerodrome Forecast
Issued by NWS

Home | Current Version | Previous Version | Text Only | Print | Product List | Glossary On
Versions: 1 2 3 4 5 6 7 8 9 10 11 12 13 14 15 16 17 18 19 20 21 22 23 24 25 26 27 28 29 30 31 32 33 34 35 36 37 38 39 40
557
FTUS45 KGJT 301122
TAFVEL
TAF
KVEL 301122Z 3012/0112 00000KT P6SM SCT050 BKN090
     FM302100 04013G21KT P6SM BKN090
     FM010600 03017G27KT P6SM SCT100
     FM010800 03017G27KT P6SM BKN100
     FM011100 03017G27KT P6SM SCT120=

USA.gov is the U.S. government's official web portal to all federal, state and local government web resources and services.